{"data":{"norad_id":59588,"epoch":"2026-09-22T17:53:21.691680Z","epoch_age_seconds":76273,"freshness":"FRESH","line1":"1 59588U 24077B   26265.74538995  .00000912  00000+0  65717-3 0  9996","line2":"2 59588  97.2252 163.2815 0060974 331.3593  28.4231 13.97700173121656","mean_motion":13.97700173,"eccentricity":0.0060974,"inclination_deg":97.2252,"raan_deg":163.2815,"arg_perigee_deg":331.3593,"mean_anomaly_deg":28.4231,"bstar":0.00065717,"rev_number":12165,"period_min":103.02638776306,"perigee_km":857.38145212384,"apogee_km":946.15846148065,"semimajor_km":7279.9069568022,"source":"CELESTRAK","updated_at":"2026-09-23T09:00:19.472501Z"}}